FW7729 Weather Reports


Display with metric or nautical units.
time (UTC)temp
F
wind
direction
speed
MPH
gust
MPH
rain 1hr
in
rain 24hr
in
rain mn
in
humidity
%
barometer
mb
20260509120141 56 176 2.0 0.0 0.00 0.00 0.00 78 1010.6
20260509115607 56 170 2.0 0.0 0.00 0.00 0.00 78 1010.6
20260509114503 56 165 1.0 0.0 0.00 0.00 0.00 77 1010.7
20260509113359 57 162 2.0 0.0 0.00 0.00 0.00 76 1010.7
20260509111724 57 166 1.0 0.0 0.00 0.00 0.00 74 1010.3
20260509111150 57 168 1.0 0.0 0.00 0.00 0.00 73 1010.4
20260509105516 58 168 1.0 0.0 0.00 0.00 0.00 71 1010.3
20260509104942 58 165 1.0 0.0 0.00 0.00 0.00 70 1010.3
20260509103838 58 166 1.0 0.0 0.00 0.00 0.00 69 1010.2
20260509103304 58 161 0.0 0.0 0.00 0.00 0.00 70 1010.2
20260509102200 58 161 0.0 0.0 0.00 0.00 0.00 69 1010.2
20260509100526 58 216 0.0 0.0 0.00 0.00 0.00 70 1010.2
20260509095952 58 216 0.0 0.0 0.00 0.00 0.00 69 1010.1
20260509094848 58 222 1.0 0.0 0.00 0.00 0.00 70 1009.9
20260509094314 58 222 0.0 0.0 0.00 0.00 0.00 70 1010.0
20260509093740 58 222 0.0 0.0 0.00 0.00 0.00 70 1010.0
20260509093205 58 222 0.0 0.0 0.00 0.00 0.00 70 1010.1
20260509092632 57 231 0.0 0.0 0.00 0.00 0.00 70 1010.1
20260509092057 57 231 0.0 0.0 0.00 0.00 0.00 71 1010.2
20260509091523 57 231 0.0 0.0 0.00 0.00 0.00 71 1010.2
20260509090949 57 228 0.0 0.0 0.00 0.00 0.00 72 1010.3
20260509090415 57 206 0.0 0.0 0.00 0.00 0.00 72 1010.3
20260509083641 57 142 0.0 0.0 0.00 0.00 0.00 72 1010.5
20260509082537 57 142 0.0 0.0 0.00 0.00 0.00 72 1010.5
20260509082003 57 173 1.0 0.0 0.00 0.00 0.00 72 1010.5
20260509080859 57 166 1.0 0.0 0.00 0.00 0.00 72 1010.8
20260509080325 57 191 1.0 0.0 0.00 0.00 0.00 72 1010.8
20260509075751 57 172 2.0 0.0 0.00 0.00 0.00 71 1010.9
20260509074117 57 149 1.0 0.0 0.00 0.00 0.00 72 1011.1
20260509073543 57 183 1.0 0.0 0.00 0.00 0.00 72 1011.0
20260509073009 57 181 2.0 0.0 0.00 0.00 0.00 71 1011.0
20260509072435 57 184 2.0 0.0 0.00 0.00 0.00 71 1011.0
20260509071331 57 177 1.0 0.0 0.00 0.00 0.00 71 1011.0
20260509070757 57 166 2.0 0.0 0.00 0.00 0.00 70 1011.0
20260509065652 57 180 2.0 0.0 0.00 0.00 0.00 70 1011.0
20260509065118 57 166 2.0 0.0 0.00 0.00 0.00 69 1011.0
20260509063444 58 157 2.0 0.0 0.00 0.00 0.00 68 1011.2
20260509062340 58 185 2.0 0.0 0.00 0.00 0.00 68 1011.2
20260509061806 58 168 1.0 0.0 0.00 0.00 0.00 68 1011.2
20260509055032 58 183 1.0 0.0 0.00 0.00 0.00 68 1011.4
20260509054458 58 170 2.0 0.0 0.00 0.00 0.00 67 1011.4
20260509053924 58 164 1.0 0.0 0.00 0.00 0.00 67 1011.3
20260509053350 58 162 2.0 0.0 0.00 0.00 0.00 67 1011.4
20260509052816 58 183 1.0 0.0 0.00 0.00 0.00 67 1011.4
20260509052242 58 163 1.0 0.0 0.00 0.00 0.00 66 1011.5
20260509050037 59 158 1.0 0.0 0.00 0.00 0.00 65 1011.4
20260509045503 59 158 1.0 0.0 0.00 0.00 0.00 64 1011.3
20260509044929 59 158 1.0 0.0 0.00 0.00 0.00 64 1011.3
20260509044355 59 166 1.0 0.0 0.00 0.00 0.00 64 1011.4
20260509043821 59 175 1.0 0.0 0.00 0.00 0.00 64 1011.3
20260509043247 59 176 1.0 0.0 0.00 0.00 0.00 64 1011.4
20260509042713 59 191 0.0 0.0 0.00 0.00 0.00 64 1011.5
20260509042139 59 176 1.0 0.0 0.00 0.00 0.00 64 1011.6
20260509041035 59 176 1.0 0.0 0.00 0.00 0.00 64 1011.6
20260509035931 59 167 1.0 0.0 0.00 0.00 0.00 65 1011.5
20260509034257 59 160 1.0 0.0 0.00 0.00 0.00 65 1011.7
20260509033152 59 152 1.0 0.0 0.00 0.00 0.00 66 1011.7
20260509031518 59 169 2.0 0.0 0.00 0.00 0.00 66 1011.8
20260509030944 59 170 1.0 0.0 0.00 0.00 0.00 66 1011.8
20260509030410 59 176 1.0 0.0 0.00 0.00 0.00 66 1012.0
20260509025307 59 176 1.0 0.0 0.00 0.00 0.00 65 1012.1
20260509024732 59 177 0.0 0.0 0.00 0.00 0.00 66 1012.0
20260509022528 60 176 0.0 0.0 0.00 0.00 0.00 66 1011.9
20260509021954 60 176 0.0 0.0 0.00 0.00 0.00 67 1011.9
20260509020320 61 176 0.0 0.0 0.00 0.00 0.00 64 1011.9
20260509015746 61 176 0.0 0.0 0.00 0.00 0.00 64 1011.8
20260509015212 61 176 0.0 0.0 0.00 0.00 0.00 63 1011.8
20260509014638 61 176 0.0 0.0 0.00 0.00 0.00 63 1011.7
20260509013534 62 176 0.0 0.0 0.00 0.00 0.00 63 1011.7
20260509012959 62 176 0.0 0.0 0.00 0.00 0.00 62 1011.8
20260509011855 62 176 0.0 0.0 0.00 0.00 0.00 62 1011.9
20260509011321 63 176 0.0 0.0 0.00 0.00 0.00 61 1011.7
20260509010747 63 176 1.0 0.0 0.00 0.00 0.00 61 1011.7
20260509010213 63 176 0.0 0.0 0.00 0.00 0.00 61 1011.7
20260509005638 64 176 0.0 0.0 0.00 0.00 0.00 60 1011.7
20260509004534 64 176 0.0 0.0 0.00 0.00 0.00 59 1011.6
20260509004000 64 176 0.0 0.0 0.00 0.00 0.00 58 1011.4
20260509003427 65 176 0.0 0.0 0.00 0.00 0.00 58 1011.5
20260509002322 66 176 0.0 0.0 0.00 0.00 0.00 58 1011.4
20260508234448 67 177 0.0 0.0 0.00 0.00 0.00 55 1011.1
20260508233914 67 177 1.0 0.0 0.00 0.00 0.00 54 1011.1
20260508232810 67 177 1.0 0.0 0.00 0.00 0.00 54 1011.0
20260508231136 67 162 1.0 0.0 0.00 0.00 0.00 54 1010.9
20260508230031 67 166 1.0 0.0 0.00 0.00 0.00 53 1011.0
20260508224357 68 166 2.0 0.0 0.00 0.00 0.00 51 1010.8
20260508223823 68 183 1.0 0.0 0.00 0.00 0.00 49 1010.7
20260508222719 68 190 0.0 0.0 0.00 0.00 0.00 49 1010.8
20260508221045 68 190 0.0 0.0 0.00 0.00 0.00 48 1010.8
20260508220511 69 185 0.0 0.0 0.00 0.00 0.00 49 1010.8
20260508214307 69 154 2.0 0.0 0.00 0.00 0.00 47 1010.6
20260508213733 68 207 1.0 0.0 0.00 0.00 0.00 48 1010.5
20260508213159 68 207 0.0 0.0 0.00 0.00 0.00 49 1010.7
20260508212625 68 207 0.0 0.0 0.00 0.00 0.00 48 1010.8
20260508212051 68 224 1.0 0.0 0.00 0.00 0.00 49 1010.9
20260508210947 68 227 2.0 0.0 0.00 0.00 0.00 47 1010.8
20260508205843 69 168 0.0 0.0 0.00 0.00 0.00 48 1010.7
20260508205309 69 272 1.0 0.0 0.00 0.00 0.00 48 1010.8
20260508204735 68 212 0.0 0.0 0.00 0.00 0.00 49 1010.8
20260508204201 68 211 1.0 0.0 0.00 0.00 0.00 49 1010.9
20260508203056 68 269 1.0 0.0 0.00 0.00 0.00 45 1011.1
20260508202523 68 280 1.0 0.0 0.00 0.00 0.00 45 1011.3
20260508201948 69 241 1.0 0.0 0.00 0.00 0.00 45 1011.2
20260508201414 69 275 2.0 0.0 0.00 0.00 0.00 46 1011.2
20260508195210 68 258 2.0 0.0 0.00 0.00 0.00 47 1011.5
20260508194636 68 258 0.0 0.0 0.00 0.00 0.00 46 1011.5
20260508194102 68 258 1.0 0.0 0.00 0.00 0.00 47 1011.5
20260508193528 68 226 3.0 0.0 0.00 0.00 0.00 47 1011.6
20260508192954 68 235 1.0 0.0 0.00 0.00 0.00 48 1011.7
20260508192420 68 179 0.0 0.0 0.00 0.00 0.00 49 1011.6
20260508191846 68 276 2.0 0.0 0.00 0.00 0.00 47 1011.9
20260508191312 68 278 2.0 0.0 0.00 0.00 0.00 48 1012.0
20260508184538 67 283 1.0 0.0 0.00 0.00 0.00 48 1012.5
20260508184004 67 265 1.0 0.0 0.00 0.00 0.00 50 1012.6
20260508182900 66 280 2.0 0.0 0.00 0.00 0.00 49 1012.7
20260508182326 67 222 0.0 0.0 0.00 0.00 0.00 49 1012.6
20260508181222 67 262 1.0 0.0 0.00 0.00 0.00 50 1012.7
20260508180648 67 252 1.0 0.0 0.00 0.00 0.00 49 1012.8
20260508180114 66 241 1.0 0.0 0.00 0.00 0.00 49 1013.0
20260508175539 67 281 2.0 0.0 0.00 0.00 0.00 49 1013.0
20260508175005 67 262 1.0 0.0 0.00 0.00 0.00 46 1013.0
20260508172801 66 244 4.0 0.0 0.00 0.00 0.00 49 1013.1
20260508172227 66 341 2.0 0.0 0.00 0.00 0.00 50 1013.4
20260508170553 66 220 2.0 0.0 0.00 0.00 0.00 51 1013.6
20260508170019 66 222 3.0 0.0 0.00 0.00 0.00 49 1013.5
20260508165445 66 220 3.0 0.0 0.00 0.00 0.00 51 1013.6
20260508164911 66 280 1.0 0.0 0.00 0.00 0.00 52 1013.7
20260508164337 66 278 2.0 0.0 0.00 0.00 0.00 53 1013.8
20260508163233 65 262 2.0 0.0 0.00 0.00 0.00 51 1013.9
20260508162659 65 228 2.0 0.0 0.00 0.00 0.00 51 1014.0
20260508162125 64 240 2.0 0.0 0.00 0.00 0.00 52 1014.1
20260508161551 64 270 2.0 0.0 0.00 0.00 0.00 53 1014.2
20260508161017 64 266 2.0 1.0 0.00 0.00 0.00 53 1014.2
20260508160443 64 285 4.0 1.0 0.00 0.00 0.00 52 1014.4
20260508155909 64 288 0.0 0.0 0.00 0.00 0.00 55 1014.3
20260508154805 64 218 2.0 0.0 0.00 0.00 0.00 53 1014.4
20260508153701 64 235 1.0 0.0 0.00 0.00 0.00 53 1014.4
20260508153127 64 233 1.0 0.0 0.00 0.00 0.00 56 1014.4
20260508152023 63 217 4.0 0.0 0.00 0.00 0.00 52 1014.6
20260508151449 63 298 1.0 0.0 0.00 0.00 0.00 56 1014.7
20260508144140 60 289 1.0 0.0 0.00 0.00 0.00 57 1014.9
20260508143606 60 219 1.0 0.0 0.00 0.00 0.00 56 1015.1
20260508143032 60 277 1.0 0.0 0.00 0.00 0.00 58 1015.0
20260508141928 60 227 3.0 0.0 0.00 0.00 0.00 58 1015.2
20260508140254 59 278 1.0 0.0 0.00 0.00 0.00 58 1015.2
20260508135720 59 216 1.0 0.0 0.00 0.00 0.00 59 1015.2
20260508135146 58 285 1.0 0.0 0.00 0.00 0.00 59 1015.3
20260508134612 58 220 2.0 0.0 0.00 0.00 0.00 60 1015.3
20260508134038 59 216 2.0 0.0 0.00 0.00 0.00 60 1015.3
20260508133504 59 290 0.0 0.0 0.00 0.00 0.00 61 1015.5
20260508132930 59 289 1.0 0.0 0.00 0.00 0.00 59 1015.4
20260508132356 58 354 0.0 0.0 0.00 0.00 0.00 65 1015.5
20260508131252 57 246 0.0 0.0 0.00 0.00 0.00 70 1015.5
20260508130717 56 247 0.0 0.0 0.00 0.00 0.00 70 1015.6
20260508130143 56 226 0.0 0.0 0.00 0.00 0.00 72 1015.6
20260508125039 55 227 1.0 0.0 0.00 0.00 0.00 74 1015.5
20260508123935 53 227 0.0 0.0 0.00 0.00 0.00 79 1015.6
20260508122831 51 170 0.0 0.0 0.00 0.00 0.00 88 1015.4